User: anonymous   Login
Location: Unspecified
(0.0000°N, 0.0000°E)
Time: 00:57:34
(UTC+00:00)
Language:

STARLINK-2285 - Orbit

View from above orbital plane
View from above orbital plane
View from above satellite
View from above satellite

Ground track
Ground track

The orbit is defined by the following mean orbital elements,

1 48019U          26145.46591543 +.00000000 +00000-0 +78076-4 0 00002
2 48019  53.1597 309.7794 0001391  88.3744 271.7417 15.31705767    02
Epoch (UTC): 25 May 2026 11:10:55
Eccentricity: 0.0001391
inclination: 53.1597°
perigee height: 470 km
apogee height: 472 km
right ascension of ascending node: 309.7794°
argument of perigee: 88.3744°
revolutions per day: 15.31705767
mean anomaly at epoch: 271.7417°

The dashed part of the orbit path shows where the satellite is in the earth's shadow,  

DLR